[[{"header":{"parameterUnit":"m.s-1","parameterCategory":2,"la1":30.2991,"la2":30.254,"lo1":-89.0895,"lo2":-89.0444,"dy":0.0017,"dx":0.0017,"nx":28,"ny":28,"refTime":"2024-06-05T03:00:00:Z","depth":"0","parameterNumber":2,"parameterNumberName":"U-component_of_CURRENTS"},"data":[0,0,0,0,0,0,0,0,0,0,0,0,0,0,0,0,0,0,0,0,0,0,0,0,0,0,0,0,0,0,0,0,0,0,0,0,0,0,0,0,0,0,0,0,0,0,0,0,0,0,0,0,0,0,0,0,0,0,0.4202,0.4203,0,0.4218,0.4218,0.4217,0.4189,0.4188,0.4187,0.4187,0.4167,0.4167,0.4168,0,0,0,0,0,0,0,0,0,0,0,0,0,0.4165,0.4165,0.4202,0.4203,0.4203,0.4218,0.4218,0.4217,0.4189,0.4188,0.4187,0.4186,0.4167,0.4167,0.4168,0,0,0,0,0,0,0,0,0,0,0,0,0,0.4178,0.4166,0.4202,0.4193,0.4192,0.4218,0.4218,0.4217,0.4189,0.4188,0.4187,0.4186,0.4167,0.4167,0.4168,0.4189,0,0,0.4168,0.4168,0,0,0,0,0,0,0,0,0.4177,0.4179,0.4194,0.4194,0.4193,0.4203,0.4197,0.4207,0.4189,0.4187,0.4187,0.4185,0.4179,0.4178,0.4179,0.4188,0.4188,0.4168,0.4168,0.4168,0.4168,0,0,0,0,0,0,0,0.4176,0.4178,0.4205,0.4194,0.4194,0.4194,0.4194,0.4199,0.4185,0.4187,0.4186,0.4193,0.4178,0.4179,0.4179,0.4187,0.4168,0.4168,0.4168,0.4168,0.4304,0.4307,0,0,0,0,0,0,0.4181,0.4177,0.4205,0.4206,0.4186,0.4195,0.4196,0.4198,0.4186,0.4184,0.4194,0.4191,0.4179,0.4178,0.4178,0.4254,0.4168,0.4169,0.4169,0.4301,0.4305,0.4309,0,0,0,0,0,0,0.418,0.4183,0.4204,0.4195,0.4198,0.4197,0.4201,0.4199,0.4207,0.4192,0.4189,0.4204,0.4178,0.4177,0.4205,0.4251,0.4169,0.4169,0.4297,0.4302,0.4307,0.4374,0,0,0,0,0,0,0.4179,0.4182,0.4189,0.4195,0.4198,0.4228,0.4202,0.42,0.4214,0.4211,0.42,0.4197,0.4178,0.4206,0.4206,0.425,0.4169,0.4292,0.4299,0.4305,0.4368,0.4381,0.4393,0,0,0,0,0,0.4177,0.4189,0.4189,0.4193,0.4206,0.423,0.4232,0.4225,0.4216,0.4227,0.423,0.4197,0.4248,0.4208,0.4207,0.4253,0.4289,0.4297,0.4305,0.4362,0.4379,0.4392,0,0,0,0,0,0,0.4173,0.4188,0.4188,0.4203,0.422,0.4226,0.4237,0.4237,0.4248,0.4248,0.4227,0.4225,0.4272,0.4263,0.422,0.4319,0.427,0.4278,0.4314,0.4329,0.4342,0.4351,0.4169,0,0,0,0,0,0.4179,0.4191,0.4208,0.422,0.4232,0.4239,0.4249,0.425,0.4261,0.4264,0.4258,0.4273,0.4306,0.4315,0.4332,0.4375,0.4392,0.4414,0.4426,0.4437,0.4449,0.4546,0.4568,0.4335,0.4334,0.4334,0,0,0.418,0.4191,0.4197,0.4221,0.4231,0.4262,0.4241,0.4266,0.4296,0.4262,0.4297,0.4309,0.4329,0.4382,0.4403,0.4376,0.451,0.4447,0.4455,0.4462,0.4557,0.4579,0.4599,0.434,0.4339,0.4338,0,0,0.4193,0.4202,0.4219,0.4242,0.4271,0.4284,0.4297,0.4315,0.4327,0.4369,0.4367,0.4419,0.4437,0.4478,0.4499,0.4599,0.4574,0.46,0.4664,0.4758,0.4777,0.4795,0.4825,0.4844,0.4605,0.4605,0.4605,0,0.4194,0.4216,0.4229,0.426,0.4283,0.4299,0.4332,0.4359,0.4385,0.4415,0.439,0.4488,0.4496,0.4595,0.4628,0.4628,0.4647,0.4594,0.4772,0.479,0.4807,0.4833,0.4854,0.4609,0.4609,0.4608,0.4608,0,0.4222,0.4247,0.4263,0.4306,0.4339,0.4368,0.4413,0.4448,0.4466,0.4497,0.4586,0.4615,0.4675,0.4697,0.4685,0.4816,0.4778,0.4773,0.4724,0.4834,0.4855,0.4875,0.4615,0.4614,0.4612,0.4611,0,0,0.4193,0.4267,0.4269,0.4292,0.4364,0.4384,0.4464,0.4534,0.4587,0.4635,0.4718,0.4795,0.4812,0.4841,0.4851,0.4929,0.5053,0.4895,0.4898,0.4907,0.5216,0.5146,0.5161,0.5071,0.5076,0.5079,0.5174,0,0.4204,0.4254,0.4302,0.4357,0.4384,0.4447,0.4515,0.459,0.4652,0.4736,0.4815,0.4893,0.4869,0.4904,0.4985,0.5045,0.5113,0.5025,0.5125,0.5127,0.5039,0.5186,0.5032,0.5101,0.5194,0.5197,0.5199,0,0.4203,0.4237,0.4291,0.437,0.439,0.4439,0.4547,0.4615,0.4759,0.4813,0.4924,0.4977,0.5113,0.5071,0.5237,0.5175,0.5203,0.5237,0.5242,0.517,0.5098,0.5015,0.5134,0.4983,0.523,0.5228,0.5226,0,0.414,0.422,0.4256,0.4284,0.4389,0.4436,0.4501,0.4636,0.4707,0.4877,0.4956,0.5101,0.519,0.5278,0.5348,0.5303,0.5512,0.5461,0.5421,0.5413,0.5301,0.5277,0.5274,0.5586,0.5586,0.5586,0.5585,0,0.4112,0.4136,0.4226,0.4242,0.4293,0.4394,0.4479,0.4572,0.4731,0.4837,0.4988,0.5099,0.5252,0.5378,0.5408,0.5488,0.5569,0.5466,0.5463,0.5317,0.5294,0.5169,0.5099,0.5589,0.5588,0.5588,0.5587,0,0.4029,0.4092,0.413,0.4231,0.4262,0.4298,0.4439,0.4506,0.4679,0.4831,0.4896,0.5133,0.5307,0.5428,0.5587,0.5567,0.5494,0.5641,0.5429,0.5399,0.5182,0.5121,0.4954,0.4812,0.5611,0.561,0.5609,0,0.3988,0.4002,0.4088,0.4106,0.415,0.4223,0.4278,0.4448,0.4543,0.4838,0.4911,0.5152,0.5302,0.5517,0.5561,0.5633,0.546,0.5491,0.5391,0.5183,0.5116,0.4897,0.4774,0.5256,0.5252,0.525,0.5247,0,0.3909,0.3945,0.3976,0.4008,0.4053,0.4103,0.421,0.4278,0.4507,0.4638,0.4851,0.5008,0.5282,0.5327,0.5451,0.5467,0.5226,0.5431,0.5302,0.4923,0.4604,0.4459,0.5134,0.5222,0.5225,0.5227,0.5228,0.5229,0.3841,0.3836,0.3876,0.3891,0.3933,0.397,0.3964,0.4106,0.4215,0.4394,0.466,0.4813,0.5044,0.5218,0.5194,0.5072,0.5048,0.4942,0.491,0.4725,0.4513,0.5105,0.5137,0.5139,0.5141,0.5142,0.5143,0,0.3728,0.3735,0.3753,0.3753,0.3727,0.3806,0.3889,0.3864,0.3909,0.4155,0.43,0.4515,0.4596,0.4726,0.4763,0.4602,0.4374,0.4467,0.414,0.4065,0.4688,0.4598,0.4411,0.4411,0.4411,0.4412,0.4412,0.4412,0.3671,0.3629,0.3629,0.3535,0.3533,0.3448,0.3453,0.3456,0.3572,0.3671,0.3789,0.3995,0.4319,0.443,0.4307,0.4201,0.3866,0.3706,0.3664,0.4131,0.4171,0.421,0.4109,0.3823,0.3822,0.2885,0.2878,0.2872]},{"header":{"parameterUnit":"m.s-1","parameterCategory":2,"la1":30.2991,"la2":30.254,"lo1":-89.0895,"lo2":-89.0444,"dy":0.0017,"dx":0.0017,"nx":28,"ny":28,"refTime":"2024-06-05T03:00:00:Z","depth":"0","parameterNumber":3,"parameterNumberName":"V-component_of_CURRENTS"},"data":[0,0,0,0,0,0,0,0,0,0,0,0,0,0,0,0,0,0,0,0,0,0,0,0,0,0,0,0,0,0,0,0,0,0,0,0,0,0,0,0,0,0,0,0,0,0,0,0,0,0,0,0,0,0,0,0,0,0,0.0271,0.027,0,0.0184,0.0183,0.0182,0.0115,0.0114,0.0114,0.0113,-0.0026,-0.0029,-0.0032,0,0,0,0,0,0,0,0,0,0,0,0,0,0.0299,0.03,0.0271,0.027,0.0269,0.0185,0.0183,0.0182,0.0115,0.0114,0.0114,0.0113,-0.0025,-0.0028,-0.0032,0,0,0,0,0,0,0,0,0,0,0,0,0,0.0255,0.03,0.0271,0.0228,0.0223,0.0185,0.0183,0.0181,0.0115,0.0114,0.0114,0.0113,-0.0023,-0.0028,-0.0033,-0.0051,0,0,-0.0048,-0.005,0,0,0,0,0,0,0,0,0.0258,0.0254,0.0235,0.0231,0.0225,0.0162,0.0142,0.0102,0.0115,0.0153,0.0113,0.0113,0.0034,0.0025,0.0007,-0.0058,-0.0064,-0.0049,-0.0052,-0.0054,-0.0055,0,0,0,0,0,0,0,0.0261,0.0257,0.0234,0.0234,0.0228,0.0185,0.0179,0.0134,0.0095,0.015,0.0145,0.014,0.0031,0.0012,0.0003,-0.0066,-0.0048,-0.0053,-0.0056,-0.0058,-0.0155,-0.0154,0,0,0,0,0,0,0.0282,0.026,0.0237,0.0232,0.0243,0.0186,0.0179,0.0181,0.0097,0.0085,0.0141,0.0137,0.0021,0.0009,-0.0002,-0.0009,-0.0054,-0.0058,-0.0061,-0.0155,-0.0155,-0.0154,0,0,0,0,0,0,0.0283,0.0281,0.024,0.0245,0.0238,0.0187,0.019,0.018,0.0164,0.0091,0.0077,0.0137,0.002,0.0005,-0.0033,-0.0016,-0.0061,-0.0065,-0.0156,-0.0155,-0.0154,-0.0036,0,0,0,0,0,0,0.0284,0.0282,0.029,0.0247,0.0238,0.0231,0.019,0.0178,0.0163,0.0158,0.0083,0.0069,0.0018,-0.0025,-0.0038,-0.0024,-0.0069,-0.0156,-0.0155,-0.0155,-0.0041,-0.0032,-0.0024,0,0,0,0,0,0.0286,0.0305,0.0291,0.0288,0.0251,0.0232,0.0223,0.0182,0.0164,0.0165,0.0114,0.0071,-0.003,-0.0029,-0.0044,-0.003,-0.0156,-0.0156,-0.0155,-0.0044,-0.0033,-0.0024,0,0,0,0,0,0,0.032,0.0299,0.0282,0.0294,0.027,0.0222,0.022,0.0193,0.0153,0.0148,0.0077,0.006,0.003,-0.0017,-0.0014,-0.0058,-0.01,-0.0102,-0.0011,-0.0002,0.0007,0.0044,-0.0073,0,0,0,0,0,0.0334,0.0342,0.0311,0.0319,0.0312,0.0268,0.0255,0.023,0.0191,0.0173,0.0123,0.0068,0.0022,-0.0001,-0.0052,-0.0072,-0.0106,-0.0075,-0.0066,-0.0058,-0.0039,-0.0066,-0.0057,-0.0151,-0.0151,-0.0151,0,0,0.0349,0.0339,0.0342,0.0327,0.0304,0.0311,0.0258,0.025,0.0255,0.0164,0.0154,0.0094,0.0021,-0.0003,-0.002,-0.0038,-0.0053,-0.0057,-0.005,-0.0035,-0.0064,-0.0054,-0.0046,-0.015,-0.0151,-0.0151,0,0,0.0391,0.0376,0.04,0.0388,0.0368,0.0345,0.035,0.0311,0.0293,0.0274,0.021,0.0166,0.0099,0.0054,0.0022,0.0046,-0.001,0.0026,0.0103,0.0077,0.0086,0.0092,0.0055,0.0058,0.0034,0.0034,0.0034,0,0.0409,0.0437,0.0402,0.0422,0.0425,0.037,0.0399,0.0373,0.0327,0.0323,0.0287,0.0198,0.0129,0.0106,0.0109,0.0067,0.0043,0.0074,0.0092,0.0097,0.0102,0.0063,0.0064,0.004,0.0039,0.0039,0.0038,0,0.0469,0.049,0.0504,0.0515,0.0512,0.0527,0.0495,0.0489,0.046,0.0431,0.0402,0.0311,0.0261,0.0228,0.0173,0.0175,0.0142,0.0105,0.0075,0.012,0.0074,0.0073,0.0048,0.0046,0.0044,0.0043,0,0,0.0523,0.0544,0.0553,0.058,0.0567,0.0578,0.0588,0.0589,0.0613,0.0549,0.0573,0.0472,0.0421,0.0381,0.0304,0.0278,0.0273,0.0218,0.0214,0.0198,0.0218,0.0201,0.0198,0.0249,0.0249,0.025,0.017,0,0.0585,0.0654,0.0643,0.071,0.0744,0.0708,0.0733,0.0722,0.0694,0.0699,0.0609,0.0592,0.048,0.0466,0.0417,0.0315,0.0279,0.0298,0.0163,0.0159,0.0152,0.0199,0.0241,0.0175,0.0169,0.0169,0.0169,0,0.0656,0.0695,0.0776,0.0827,0.0841,0.0873,0.091,0.0924,0.0903,0.0882,0.0836,0.0763,0.07,0.0608,0.046,0.0482,0.0363,0.0278,0.0272,0.022,0.0142,0.0128,0.0173,-0.0062,0.0167,0.0167,0.0168,0,0.0731,0.0794,0.087,0.0884,0.0927,0.0965,0.0989,0.0987,0.1026,0.1007,0.1036,0.0922,0.0897,0.0739,0.0536,0.0508,0.0385,0.0315,0.0184,0.018,0.017,0.0165,-0.001,0.0223,0.0223,0.0223,0.0223,0,0.0808,0.0869,0.0918,0.0961,0.1067,0.106,0.1162,0.1161,0.1192,0.1274,0.1144,0.1183,0.0936,0.0823,0.061,0.0407,0.0431,0.0216,0.0171,0.021,0.021,-0.0034,-0.0155,0.022,0.0221,0.0221,0.0222,0,0.0878,0.0905,0.1001,0.1073,0.1108,0.1186,0.1289,0.1357,0.1372,0.1477,0.1488,0.1394,0.1256,0.0991,0.0744,0.0527,0.02,0.0233,0.029,0.0254,-0.0095,-0.0209,-0.0417,-0.0495,0.0079,0.0078,0.0078,0,0.0918,0.0978,0.1093,0.1162,0.1203,0.1315,0.14,0.1446,0.1534,0.1622,0.1693,0.1596,0.1564,0.1178,0.0785,0.0421,0.0196,0.0203,0.0147,-0.0089,-0.0251,-0.0347,-0.0404,0.0168,0.0168,0.0168,0.0168,0,0.0999,0.1043,0.1121,0.1268,0.1375,0.1505,0.1636,0.174,0.1826,0.1932,0.205,0.2041,0.1684,0.1339,0.0824,0.0561,0.0067,0.0194,-0.0058,-0.019,-0.0296,-0.0399,0.0174,0.017,0.017,0.017,0.017,0.0169,0.106,0.1132,0.1241,0.1382,0.1511,0.1689,0.182,0.1979,0.217,0.2356,0.2323,0.2373,0.1859,0.1173,0.0766,0.0063,0.0053,-0.0153,-0.0271,-0.0348,-0.042,0.0155,0.0104,0.0103,0.0103,0.0103,0.0102,0,0.1131,0.1214,0.1346,0.1519,0.1673,0.1735,0.1972,0.2125,0.2382,0.2561,0.2672,0.2485,0.1836,0.1161,0.0205,-0.0313,-0.0487,-0.0591,-0.0728,-0.0763,-0.0257,-0.025,-0.0369,-0.0369,-0.0369,-0.0369,-0.0368,-0.0368,0.1169,0.1299,0.1368,0.1626,0.1756,0.1984,0.2133,0.2377,0.2569,0.2812,0.2881,0.2881,0.2376,0.065,-0.0532,-0.0798,-0.113,-0.1207,-0.1388,-0.1071,-0.104,-0.1011,-0.1036,-0.1317,-0.1318,-0.1817,-0.1823,-0.1827]}],[{"header":{"parameterUnit":"m.s-1","parameterCategory":2,"la1":30.2991,"la2":30.254,"lo1":-89.0895,"lo2":-89.0444,"dy":0.0017,"dx":0.0017,"nx":28,"ny":28,"refTime":"2024-06-05T03:00:00:Z","depth":"2","parameterNumber":2,"parameterNumberName":"U-component_of_CURRENTS"},"data":[0,0,0,0,0,0,0,0,0,0,0,0,0,0,0,0,0,0,0,0,0,0,0,0,0,0,0,0,0,0,0,0,0,0,0,0,0,0,0,0,0,0,0,0,0,0,0,0,0,0,0,0,0,0,0,0,0,0,0.3628,0.3628,0,0.3658,0.3658,0.3658,0.3652,0.3652,0.3651,0.3651,0.3646,0.3646,0.3646,0,0,0,0,0,0,0,0,0,0,0,0,0,0.3572,0.3573,0.3628,0.3628,0.3629,0.3658,0.3658,0.3658,0.3652,0.3652,0.3651,0.3651,0.3646,0.3646,0.3646,0,0,0,0,0,0,0,0,0,0,0,0,0,0.3597,0.3573,0.3628,0.3631,0.3632,0.3658,0.3658,0.3658,0.3652,0.3652,0.3651,0.3651,0.3646,0.3646,0.3646,0.3659,0,0,0.3647,0.3647,0,0,0,0,0,0,0,0,0.3595,0.3598,0.363,0.3631,0.3632,0.3653,0.3637,0.3658,0.3652,0.3642,0.3651,0.3651,0.3647,0.3647,0.3651,0.3658,0.3658,0.3647,0.3648,0.3648,0.3648,0,0,0,0,0,0,0,0.3594,0.3597,0.3637,0.3631,0.3632,0.3634,0.3636,0.3641,0.3645,0.3643,0.3643,0.365,0.3647,0.3651,0.3651,0.3658,0.3647,0.3648,0.3648,0.3648,0.3752,0.3755,0,0,0,0,0,0,0.3595,0.3596,0.3637,0.3639,0.3614,0.3635,0.3638,0.3645,0.3645,0.3646,0.3651,0.365,0.3651,0.3651,0.3651,0.3725,0.3648,0.3648,0.3648,0.3749,0.3753,0.3755,0,0,0,0,0,0,0.3593,0.3598,0.3635,0.3619,0.3625,0.3637,0.3644,0.3646,0.3664,0.3652,0.3651,0.367,0.365,0.365,0.3679,0.3722,0.3648,0.3648,0.3746,0.375,0.3754,0.3834,0,0,0,0,0,0,0.3592,0.3597,0.3608,0.362,0.3626,0.3662,0.3645,0.3647,0.3669,0.3669,0.3668,0.3666,0.365,0.3679,0.3679,0.3721,0.3649,0.3743,0.3748,0.3753,0.3828,0.384,0.3851,0,0,0,0,0,0.359,0.3604,0.3608,0.3613,0.3638,0.3664,0.3667,0.3672,0.3671,0.3685,0.3693,0.3667,0.371,0.3681,0.3681,0.3724,0.3741,0.3747,0.3752,0.3823,0.3838,0.385,0,0,0,0,0,0,0.3583,0.3605,0.361,0.3629,0.3652,0.3664,0.368,0.3686,0.3704,0.3707,0.3692,0.3692,0.3736,0.3723,0.3691,0.3772,0.3725,0.3731,0.3779,0.3793,0.3804,0.3807,0.3649,0,0,0,0,0,0.3588,0.3605,0.3627,0.3644,0.3658,0.3674,0.3688,0.3696,0.3712,0.3719,0.372,0.3733,0.376,0.3769,0.3782,0.3819,0.383,0.3852,0.3863,0.3872,0.3879,0.3955,0.3974,0.3775,0.3775,0.3774,0,0,0.3589,0.3605,0.3614,0.3645,0.3662,0.3692,0.3681,0.3712,0.3743,0.3716,0.3758,0.377,0.378,0.3827,0.3846,0.382,0.3935,0.388,0.3888,0.3889,0.3964,0.3983,0.4,0.3779,0.3778,0.3777,0,0,0.3602,0.3618,0.3639,0.3664,0.37,0.3715,0.373,0.3757,0.3776,0.382,0.382,0.3861,0.3884,0.3908,0.3922,0.4006,0.3994,0.4014,0.407,0.4145,0.4161,0.4176,0.4209,0.4227,0.4017,0.4017,0.4018,0,0.3603,0.363,0.365,0.3682,0.3707,0.373,0.3764,0.3793,0.3827,0.3858,0.3844,0.3926,0.3928,0.4003,0.4034,0.4031,0.4058,0.4013,0.4159,0.4174,0.4188,0.4218,0.4236,0.4022,0.4021,0.4021,0.4021,0,0.363,0.366,0.3677,0.3725,0.3759,0.3791,0.3836,0.3875,0.3902,0.3934,0.4014,0.403,0.4081,0.4096,0.4088,0.4194,0.4177,0.4165,0.4121,0.4213,0.4239,0.4256,0.4029,0.4027,0.4026,0.4024,0,0,0.3602,0.368,0.3684,0.371,0.3784,0.3805,0.3882,0.3949,0.4001,0.405,0.4126,0.4183,0.4203,0.4222,0.4228,0.4286,0.4402,0.4271,0.4273,0.4296,0.4552,0.4473,0.4483,0.4425,0.4428,0.4431,0.4528,0,0.3613,0.3666,0.3714,0.377,0.3799,0.3863,0.3927,0.3998,0.4062,0.4142,0.42,0.4271,0.425,0.4285,0.4348,0.4396,0.4453,0.4375,0.4466,0.4468,0.4381,0.4503,0.4147,0.4199,0.4545,0.4548,0.455,0,0.3613,0.3649,0.3705,0.3785,0.3806,0.3855,0.3959,0.4025,0.4156,0.4211,0.4308,0.4356,0.4465,0.4427,0.4563,0.452,0.4547,0.4569,0.4574,0.4482,0.4422,0.4166,0.4217,0.4578,0.4576,0.4574,0.4572,0,0.3553,0.3635,0.3675,0.3704,0.3807,0.3856,0.3921,0.4048,0.4115,0.4272,0.4348,0.4467,0.4544,0.4617,0.4675,0.4638,0.4812,0.4763,0.471,0.4702,0.4407,0.4368,0.4861,0.4861,0.4861,0.4861,0.486,0,0.3526,0.3553,0.365,0.3669,0.3724,0.3822,0.3908,0.3997,0.4144,0.424,0.4381,0.4474,0.4603,0.4712,0.4735,0.4789,0.4869,0.4746,0.4742,0.4424,0.4388,0.4714,0.4696,0.4864,0.4863,0.4863,0.4862,0,0.3447,0.3512,0.3556,0.3662,0.3696,0.3738,0.388,0.3941,0.4108,0.4246,0.4307,0.4515,0.4663,0.4767,0.4893,0.4861,0.4915,0.4904,0.4507,0.4456,0.473,0.4715,0.4855,0.4853,0.4852,0.4851,0.485,0,0.3408,0.3427,0.3523,0.3545,0.3595,0.3676,0.373,0.3895,0.398,0.4251,0.4312,0.4527,0.4642,0.4813,0.4807,0.4852,0.492,0.4522,0.4386,0.4757,0.474,0.4727,0.4714,0.4017,0.401,0.4003,0.3998,0,0.3334,0.3376,0.3411,0.3456,0.3508,0.3558,0.3666,0.3725,0.3937,0.4056,0.4234,0.4359,0.4564,0.4465,0.4552,0.4518,0.4489,0.4397,0.4918,0.4083,0.3978,0.3957,0.397,0.3942,0.3948,0.3952,0.3955,0.3957,0.3273,0.3271,0.332,0.3347,0.3395,0.3426,0.342,0.3546,0.3637,0.3786,0.4014,0.4077,0.4173,0.4128,0.4024,0.3946,0.4251,0.4043,0.4057,0.4079,0.3975,0.3875,0.3797,0.3802,0.3806,0.3809,0.3812,0,0.3168,0.3181,0.3205,0.3216,0.3193,0.3279,0.3347,0.331,0.3333,0.3517,0.3622,0.3416,0.34,0.3487,0.3302,0.3324,0.324,0.317,0.3019,0.3081,0.3135,0.2974,0.2535,0.253,0.2526,0.2522,0,0,0.3116,0.308,0.3082,0.3,0.3011,0.2932,0.2931,0.2908,0.2975,0.296,0.297,0.3254,0.3413,0.2917,0.2876,0.2667,0.2833,0.2561,0.3602,0.3489,0.3535,0.3679,0.351,0,0,0,0,0]},{"header":{"parameterUnit":"m.s-1","parameterCategory":2,"la1":30.2991,"la2":30.254,"lo1":-89.0895,"lo2":-89.0444,"dy":0.0017,"dx":0.0017,"nx":28,"ny":28,"refTime":"2024-06-05T03:00:00:Z","depth":"2","parameterNumber":3,"parameterNumberName":"V-component_of_CURRENTS"},"data":[0,0,0,0,0,0,0,0,0,0,0,0,0,0,0,0,0,0,0,0,0,0,0,0,0,0,0,0,0,0,0,0,0,0,0,0,0,0,0,0,0,0,0,0,0,0,0,0,0,0,0,0,0,0,0,0,0,0,0.0165,0.0165,0,0.0087,0.0086,0.0084,0.0026,0.0026,0.0025,0.0025,-0.009,-0.0093,-0.0096,0,0,0,0,0,0,0,0,0,0,0,0,0,0.019,0.019,0.0165,0.0165,0.0164,0.0087,0.0086,0.0084,0.0026,0.0026,0.0025,0.0025,-0.0089,-0.0093,-0.0096,0,0,0,0,0,0,0,0,0,0,0,0,0,0.015,0.019,0.0165,0.0127,0.0123,0.0087,0.0085,0.0084,0.0026,0.0026,0.0025,0.0025,-0.0088,-0.0092,-0.0096,-0.0114,0,0,-0.0109,-0.0111,0,0,0,0,0,0,0,0,0.0153,0.0149,0.0134,0.013,0.0125,0.0068,0.0052,0.0017,0.0026,0.006,0.0025,0.0025,-0.0039,-0.0047,-0.0064,-0.0119,-0.0124,-0.011,-0.0112,-0.0114,-0.0115,0,0,0,0,0,0,0,0.0155,0.0152,0.0132,0.0133,0.0128,0.0089,0.0083,0.0045,0.0011,0.0057,0.0054,0.0049,-0.0042,-0.006,-0.0067,-0.0126,-0.011,-0.0113,-0.0116,-0.0118,-0.0198,-0.0197,0,0,0,0,0,0,0.0175,0.0155,0.0134,0.0129,0.0141,0.0089,0.0083,0.0085,0.0013,0.0002,0.0049,0.0047,-0.0052,-0.0062,-0.0072,-0.0076,-0.0114,-0.0118,-0.012,-0.0198,-0.0198,-0.0197,0,0,0,0,0,0,0.0176,0.0174,0.0137,0.0142,0.0135,0.009,0.0092,0.0083,0.007,0.0007,-0.0004,0.0047,-0.0053,-0.0066,-0.0096,-0.0081,-0.012,-0.0124,-0.0199,-0.0198,-0.0197,-0.0097,0,0,0,0,0,0,0.0177,0.0175,0.0182,0.0144,0.0135,0.0129,0.0093,0.0082,0.0069,0.0065,0.0001,-0.0011,-0.0054,-0.0089,-0.01,-0.0088,-0.0127,-0.0199,-0.0198,-0.0198,-0.0101,-0.0093,-0.0087,0,0,0,0,0,0.0178,0.0195,0.0183,0.018,0.0147,0.013,0.0122,0.0086,0.007,0.0071,0.0028,-0.0008,-0.0093,-0.0092,-0.0105,-0.0094,-0.0199,-0.0199,-0.0198,-0.0104,-0.0095,-0.0087,0,0,0,0,0,0,0.0208,0.019,0.0176,0.0186,0.0165,0.0121,0.0119,0.0096,0.0062,0.0058,-0.0003,-0.0018,-0.0041,-0.0081,-0.0079,-0.0116,-0.0152,-0.0154,-0.0077,-0.0069,-0.0061,-0.003,-0.0131,0,0,0,0,0,0.022,0.0228,0.02,0.0208,0.0202,0.0162,0.015,0.0129,0.0095,0.008,0.0037,-0.001,-0.0048,-0.0067,-0.011,-0.0127,-0.0161,-0.0129,-0.0122,-0.0115,-0.0099,-0.0134,-0.0128,-0.0194,-0.0194,-0.0194,0,0,0.0233,0.0224,0.0228,0.0215,0.0194,0.02,0.0154,0.0146,0.0151,0.0073,0.0065,0.0013,-0.0048,-0.0069,-0.0083,-0.0098,-0.0116,-0.0114,-0.0108,-0.0095,-0.0132,-0.0125,-0.012,-0.0194,-0.0194,-0.0194,0,0,0.027,0.0258,0.0279,0.0269,0.0251,0.023,0.0235,0.02,0.0184,0.0169,0.0113,0.0077,0.002,-0.0019,-0.0046,-0.0025,-0.0078,-0.0042,0.0023,-0.001,-0.0005,-0.0,-0.0036,-0.0036,-0.0035,-0.0035,-0.0035,0,0.0286,0.0311,0.0281,0.0298,0.0301,0.0253,0.0279,0.0256,0.0216,0.0211,0.0181,0.0103,0.0047,0.0025,0.0029,-0.0006,-0.0035,-0.0002,0.0001,0.0005,0.0008,-0.003,-0.0031,-0.003,-0.0031,-0.0031,-0.0032,0,0.0338,0.0358,0.0369,0.038,0.0377,0.0391,0.0363,0.0357,0.0332,0.0306,0.0279,0.0202,0.0159,0.013,0.0085,0.0078,0.0048,0.0014,-0.0014,0.0021,-0.0022,-0.0025,-0.0023,-0.0025,-0.0026,-0.0028,0,0,0.0385,0.0404,0.0412,0.0437,0.0426,0.0436,0.0445,0.0444,0.0463,0.0407,0.0423,0.0339,0.0295,0.0261,0.0194,0.0162,0.0147,0.0107,0.0103,0.0084,0.0075,0.0047,0.0041,0.0116,0.0116,0.0116,0.0036,0,0.0439,0.05,0.0491,0.0551,0.0582,0.055,0.0572,0.0561,0.0534,0.0535,0.0454,0.0437,0.0345,0.0332,0.0282,0.0183,0.0146,0.0172,0.0033,0.0029,0.001,0.0039,0.0072,0.0004,0.0033,0.0033,0.0032,0,0.0501,0.0536,0.0608,0.0655,0.0667,0.0696,0.0728,0.0739,0.0714,0.0693,0.0649,0.0583,0.0521,0.0444,0.0297,0.032,0.0212,0.0129,0.0123,0.0064,-0.0003,-0.0029,-0.0003,0.0028,0.0028,0.0028,0.0029,0,0.0567,0.0624,0.0691,0.0705,0.0743,0.0778,0.08,0.0794,0.0826,0.0801,0.082,0.0713,0.0686,0.0537,0.035,0.033,0.0193,0.0137,0.0008,0.0004,-0.0011,-0.0016,0.0043,0.0043,0.0044,0.0044,0.0044,0,0.0635,0.0689,0.0735,0.0774,0.0869,0.0863,0.0953,0.095,0.0971,0.1036,0.0916,0.0938,0.0712,0.0598,0.0406,0.0207,0.0229,0.0032,-0.0012,0.0023,0.0022,0.0006,0.0003,0.0041,0.0041,0.0042,0.0043,0,0.0696,0.0721,0.0808,0.0874,0.0906,0.0976,0.1068,0.1126,0.1131,0.1213,0.1219,0.1116,0.097,0.0728,0.049,0.0299,0.0098,0.0019,0.0073,0.0037,-0.0086,-0.0083,-0.0131,-0.0133,-0.0134,-0.0135,-0.0136,0,0.0732,0.0786,0.0892,0.0955,0.0993,0.1095,0.117,0.1207,0.1281,0.1332,0.1387,0.1274,0.1217,0.0841,0.0489,0.0155,0.0105,-0.0041,-0.0082,-0.0062,-0.0101,-0.0096,-0.0092,-0.0069,-0.0069,-0.0069,-0.007,0,0.0804,0.0844,0.0915,0.105,0.1147,0.1264,0.1379,0.1466,0.1532,0.1605,0.1673,0.1634,0.1285,0.0946,0.0477,0.0249,0.001,-0.0057,-0.0039,-0.0027,-0.001,-0.0046,-0.0042,-0.0072,-0.0071,-0.0071,-0.0071,-0.0071,0.0859,0.0922,0.1022,0.1151,0.127,0.1425,0.1536,0.1664,0.1812,0.193,0.1883,0.1831,0.1439,0.0842,0.0427,-0.0011,0.0013,-0.0145,-0.0142,-0.0139,-0.0115,-0.01,-0.0175,-0.0175,-0.0175,-0.0176,-0.0176,0,0.0923,0.0995,0.1114,0.127,0.1407,0.1467,0.1668,0.1783,0.1975,0.2066,0.2116,0.1755,0.1366,0.0908,0.0262,-0.012,-0.015,-0.0245,-0.0197,-0.0191,-0.0187,-0.0164,-0.0239,-0.024,-0.0241,-0.0243,0,0,0.0956,0.107,0.1129,0.1357,0.1476,0.1673,0.1798,0.1971,0.2086,0.2178,0.2149,0.206,0.1514,0.1034,0.0509,0.0132,0.0059,0.0058,0.0154,0.028,0.0289,-0.0081,-0.0033,0,0,0,0,0]}],[{"header":{"parameterUnit":"m.s-1","parameterCategory":2,"la1":30.2991,"la2":30.254,"lo1":-89.0895,"lo2":-89.0444,"dy":0.0017,"dx":0.0017,"nx":28,"ny":28,"refTime":"2024-06-05T03:00:00:Z","depth":"4","parameterNumber":2,"parameterNumberName":"U-component_of_CURRENTS"},"data":[0,0,0,0,0,0,0,0,0,0,0,0,0,0,0,0,0,0,0,0,0,0,0,0,0,0,0,0,0,0,0,0,0,0,0,0,0,0,0,0,0,0,0,0,0,0,0,0,0,0,0,0,0,0,0,0,0,0,0.243,0.2431,0,0.2517,0.2518,0.2519,0.2594,0.2595,0.2596,0.2597,0.2685,0.2686,0.2687,0,0,0,0,0,0,0,0,0,0,0,0,0,0.2318,0.232,0.243,0.2431,0.2432,0.2517,0.2518,0.2519,0.2594,0.2595,0.2596,0.2597,0.2684,0.2686,0.2687,0,0,0,0,0,0,0,0,0,0,0,0,0,0.2381,0.232,0.243,0.2481,0.2487,0.2517,0.2518,0.2519,0.2594,0.2595,0.2597,0.2598,0.2684,0.2686,0.2688,0.267,0,0,0.2694,0.2695,0,0,0,0,0,0,0,0,0.2377,0.2384,0.2472,0.2478,0.2484,0.2548,0.2511,0.257,0.2593,0.2551,0.2597,0.2599,0.2639,0.2645,0.2655,0.2675,0.2678,0.2694,0.2695,0.2696,0.2697,0,0,0,0,0,0,0,0.2373,0.2381,0.2463,0.2474,0.2481,0.2497,0.2507,0.2522,0.2584,0.2555,0.2561,0.2573,0.2642,0.2653,0.2658,0.268,0.2694,0.2696,0.2697,0.2698,0.2833,0.2835,0,0,0,0,0,0,0.2364,0.2377,0.246,0.2466,0.2435,0.2498,0.2509,0.2524,0.2584,0.2595,0.2572,0.2576,0.2649,0.2655,0.2661,0.2782,0.2696,0.2698,0.27,0.283,0.2833,0.2836,0,0,0,0,0,0,0.2362,0.2371,0.2457,0.2424,0.2437,0.2498,0.2514,0.2525,0.259,0.2597,0.2608,0.2631,0.265,0.2658,0.2727,0.2781,0.2699,0.2701,0.2828,0.2831,0.2834,0.2935,0,0,0,0,0,0,0.2358,0.2369,0.2403,0.2424,0.2438,0.2506,0.2514,0.2526,0.2592,0.2601,0.2651,0.2658,0.2652,0.2724,0.2729,0.2782,0.2703,0.2825,0.2829,0.2833,0.2929,0.2942,0.2952,0,0,0,0,0,0.2354,0.2382,0.2404,0.2415,0.2474,0.2508,0.2518,0.2564,0.2594,0.2628,0.2671,0.2659,0.2755,0.2728,0.2733,0.2788,0.2823,0.2828,0.2833,0.2924,0.2939,0.2952,0,0,0,0,0,0,0.2353,0.2393,0.2417,0.2459,0.2498,0.2522,0.2565,0.2594,0.2654,0.2681,0.2688,0.2698,0.2777,0.2768,0.2738,0.2839,0.2787,0.2793,0.2854,0.2869,0.288,0.2879,0.2705,0,0,0,0,0,0.2366,0.2405,0.2437,0.2479,0.2503,0.2545,0.2577,0.2609,0.2651,0.2683,0.2717,0.2756,0.2792,0.2822,0.2846,0.2901,0.2902,0.2939,0.2951,0.2961,0.2965,0.3022,0.3039,0.2853,0.2853,0.2853,0,0,0.2379,0.2408,0.2432,0.2484,0.2521,0.2561,0.257,0.2633,0.2681,0.268,0.2775,0.2802,0.2817,0.2883,0.2918,0.289,0.3018,0.2968,0.2977,0.2974,0.3029,0.3047,0.3063,0.2856,0.2856,0.2855,0,0,0.2403,0.2451,0.2487,0.2524,0.2589,0.2611,0.2641,0.2697,0.2745,0.2824,0.284,0.2903,0.296,0.2981,0.2995,0.3085,0.3079,0.3104,0.3165,0.3222,0.3237,0.3251,0.3285,0.3301,0.311,0.311,0.311,0,0.2423,0.2466,0.2504,0.2547,0.2588,0.2639,0.2685,0.2734,0.2811,0.2856,0.2872,0.2985,0.3002,0.3074,0.3112,0.3113,0.314,0.311,0.3238,0.3251,0.3263,0.3295,0.3311,0.3115,0.3115,0.3114,0.3114,0,0.2455,0.2513,0.254,0.261,0.2658,0.2711,0.2771,0.284,0.2907,0.2952,0.3062,0.3095,0.3161,0.3181,0.3179,0.3278,0.3269,0.3246,0.32,0.3288,0.3316,0.3331,0.3123,0.3121,0.312,0.3118,0,0,0.2431,0.2541,0.2557,0.2601,0.27,0.2732,0.2831,0.2915,0.2986,0.3076,0.3168,0.3244,0.3282,0.3301,0.3315,0.3363,0.3479,0.3357,0.3357,0.3388,0.3609,0.3376,0.337,0.3494,0.3497,0.3499,0.3596,0,0.245,0.2528,0.2588,0.2677,0.2718,0.2806,0.2884,0.2976,0.3065,0.3167,0.3234,0.3327,0.3322,0.3377,0.343,0.3472,0.3523,0.3454,0.352,0.3522,0.3302,0.338,0.3509,0.3607,0.361,0.3613,0.3615,0,0.2448,0.2504,0.2593,0.2706,0.2736,0.2809,0.2945,0.3025,0.317,0.3245,0.3356,0.3415,0.3525,0.3499,0.3623,0.359,0.3616,0.363,0.3633,0.3386,0.3315,0.3499,0.3641,0.3639,0.3637,0.3636,0.3634,0,0.2379,0.2501,0.2574,0.2616,0.2753,0.2831,0.2918,0.3063,0.314,0.3316,0.3397,0.3522,0.361,0.3672,0.3726,0.3701,0.3837,0.3795,0.3603,0.3588,0.3724,0.3708,0.3874,0.3874,0.3873,0.3873,0.3873,0,0.2339,0.2403,0.256,0.2597,0.2694,0.2813,0.2936,0.304,0.32,0.3289,0.3446,0.352,0.3666,0.3756,0.3776,0.3736,0.3887,0.3621,0.3598,0.3765,0.3752,0.3735,0.3718,0.3877,0.3876,0.3875,0.3875,0,0.2244,0.235,0.244,0.2606,0.2666,0.2742,0.2932,0.3002,0.3184,0.3312,0.3379,0.3566,0.3673,0.3776,0.3878,0.3774,0.377,0.3717,0.3903,0.3889,0.347,0.3458,0.3498,0.349,0.3484,0.3479,0.3474,0,0.2195,0.2238,0.2425,0.2481,0.2571,0.2705,0.2784,0.2973,0.305,0.3299,0.3335,0.3521,0.3619,0.3576,0.3698,0.3716,0.367,0.3641,0.3529,0.3458,0.3434,0.3431,0.3427,0.3464,0.3463,0.3461,0.3459,0,0.2099,0.2196,0.227,0.2387,0.249,0.2574,0.2714,0.2746,0.2957,0.3148,0.3205,0.3255,0.3365,0.3422,0.3469,0.3472,0.3641,0.3575,0.3586,0.348,0.3418,0.34,0.3403,0.3438,0.3441,0.3443,0.3444,0,0.2038,0.2063,0.218,0.226,0.2374,0.2408,0.2501,0.2583,0.2674,0.2942,0.2952,0.3146,0.3325,0.3297,0.334,0.3328,0.3264,0.3138,0.3171,0.3196,0.3051,0.2925,0.2778,0,0,0,0,0,0.1955,0.1965,0.2035,0.2104,0.2206,0.2272,0.243,0.2526,0.2731,0.2692,0.281,0.2891,0.2942,0.3041,0.2967,0.3216,0.3288,0.3114,0.3163,0.3317,0.3342,0.3197,0,0,0,0,0,0,0.1898,0.1961,0.1978,0.1953,0.197,0.2056,0.2148,0.2292,0.2282,0.2502,0.2546,0.2707,0.2806,0.295,0.2907,0.2938,0.2905,0.3237,0.3229,0.3303,0.3326,0.3346,0.3205,0,0,0,0,0]},{"header":{"parameterUnit":"m.s-1","parameterCategory":2,"la1":30.2991,"la2":30.254,"lo1":-89.0895,"lo2":-89.0444,"dy":0.0017,"dx":0.0017,"nx":28,"ny":28,"refTime":"2024-06-05T03:00:00:Z","depth":"4","parameterNumber":3,"parameterNumberName":"V-component_of_CURRENTS"},"data":[0,0,0,0,0,0,0,0,0,0,0,0,0,0,0,0,0,0,0,0,0,0,0,0,0,0,0,0,0,0,0,0,0,0,0,0,0,0,0,0,0,0,0,0,0,0,0,0,0,0,0,0,0,0,0,0,0,0,0.0124,0.0123,0,0.007,0.0069,0.0068,0.0028,0.0028,0.0027,0.0027,-0.0053,-0.0055,-0.0057,0,0,0,0,0,0,0,0,0,0,0,0,0,0.0138,0.0139,0.0124,0.0123,0.0123,0.007,0.0069,0.0068,0.0028,0.0028,0.0027,0.0027,-0.0052,-0.0055,-0.0057,0,0,0,0,0,0,0,0,0,0,0,0,0,0.0111,0.0139,0.0124,0.0098,0.0095,0.007,0.0069,0.0068,0.0028,0.0028,0.0027,0.0027,-0.0051,-0.0054,-0.0057,-0.0071,0,0,-0.0066,-0.0068,0,0,0,0,0,0,0,0,0.0113,0.011,0.0102,0.01,0.0097,0.0057,0.0045,0.0021,0.0028,0.0051,0.0027,0.0027,-0.0017,-0.0023,-0.0035,-0.0075,-0.0078,-0.0067,-0.0068,-0.007,-0.0071,0,0,0,0,0,0,0,0.0115,0.0112,0.01,0.0102,0.0098,0.0071,0.0067,0.004,0.0017,0.0049,0.0047,0.0044,-0.0019,-0.0032,-0.0037,-0.0079,-0.0067,-0.0069,-0.0071,-0.0072,-0.0126,-0.0126,0,0,0,0,0,0,0.0129,0.0114,0.0102,0.0099,0.0107,0.0071,0.0067,0.0068,0.0018,0.0011,0.0044,0.0042,-0.0027,-0.0034,-0.004,-0.004,-0.007,-0.0072,-0.0074,-0.0127,-0.0126,-0.0126,0,0,0,0,0,0,0.013,0.0129,0.0104,0.0107,0.0102,0.0072,0.0073,0.0067,0.0059,0.0015,0.0007,0.0044,-0.0027,-0.0036,-0.0056,-0.0044,-0.0074,-0.0077,-0.0127,-0.0126,-0.0126,-0.0052,0,0,0,0,0,0,0.013,0.0129,0.0136,0.0108,0.0102,0.0099,0.0074,0.0067,0.0059,0.0056,0.0011,0.0003,-0.0028,-0.0051,-0.0059,-0.0049,-0.0079,-0.0127,-0.0127,-0.0126,-0.0055,-0.0049,-0.0044,0,0,0,0,0,0.0131,0.0143,0.0137,0.0135,0.0113,0.01,0.0095,0.007,0.006,0.0061,0.0031,0.0005,-0.0053,-0.0053,-0.0062,-0.0053,-0.0128,-0.0127,-0.0126,-0.0058,-0.005,-0.0044,0,0,0,0,0,0,0.0151,0.014,0.0132,0.0139,0.0126,0.0094,0.0094,0.0078,0.0055,0.0053,0.0009,-0.0,-0.0016,-0.0044,-0.0043,-0.0067,-0.0095,-0.0096,-0.0039,-0.0033,-0.0028,-0.0004,-0.0081,0,0,0,0,0,0.0161,0.0169,0.0149,0.0156,0.0152,0.0125,0.0117,0.0103,0.0079,0.0069,0.0039,0.0007,-0.0021,-0.0033,-0.0064,-0.0074,-0.0104,-0.0075,-0.0069,-0.0064,-0.0052,-0.0088,-0.0084,-0.0123,-0.0123,-0.0123,0,0,0.0171,0.0166,0.017,0.0162,0.0148,0.0154,0.012,0.0115,0.0121,0.0064,0.0061,0.0024,-0.002,-0.0033,-0.0042,-0.0054,-0.007,-0.0063,-0.0058,-0.0049,-0.0087,-0.0083,-0.008,-0.0123,-0.0123,-0.0123,0,0,0.0198,0.0191,0.0208,0.0202,0.0191,0.0177,0.0181,0.0157,0.0147,0.0139,0.0098,0.0072,0.0034,0.0005,-0.0015,0.0003,-0.0042,-0.0009,0.0041,0.0005,0.0008,0.0011,-0.0024,-0.0025,-0.0003,-0.0003,-0.0003,0,0.0211,0.0231,0.021,0.0223,0.0228,0.0195,0.0215,0.0199,0.0173,0.017,0.0149,0.0094,0.0054,0.0038,0.0042,0.0017,-0.0011,0.0021,0.0014,0.0015,0.0016,-0.002,-0.0022,0.0,-0.0,-0.0,-0.0001,0,0.0248,0.0266,0.0275,0.0286,0.0286,0.0297,0.0279,0.0278,0.0262,0.0243,0.0225,0.0169,0.0139,0.0118,0.0085,0.0076,0.005,0.0023,0.0001,0.0025,-0.0015,-0.0019,0.0006,0.0004,0.0003,0.0002,0,0,0.0279,0.0299,0.0305,0.0328,0.0323,0.0333,0.0343,0.0345,0.0361,0.0321,0.0334,0.0274,0.0242,0.0217,0.0168,0.0135,0.0112,0.0091,0.0088,0.0065,0.0036,0.0016,0.0009,0.0084,0.0084,0.0084,0.0004,0,0.0318,0.0366,0.0363,0.0414,0.0438,0.042,0.044,0.0435,0.0417,0.0418,0.0357,0.0348,0.028,0.0272,0.0227,0.0143,0.0106,0.0137,0.0009,0.0006,-0.0009,0.0006,0.0083,0.0001,-0.0,-0.0001,-0.0001,0,0.0361,0.039,0.0449,0.0493,0.0503,0.0532,0.0562,0.0574,0.0556,0.0541,0.0508,0.0458,0.0407,0.0349,0.022,0.0242,0.0151,0.0079,0.0074,0.003,-0.0021,-0.003,-0.0009,-0.0008,-0.0008,-0.0007,-0.0007,0,0.0403,0.0454,0.051,0.0522,0.0561,0.0595,0.062,0.0619,0.0645,0.0627,0.064,0.0554,0.053,0.0403,0.0248,0.0237,0.0102,0.0065,-0.0041,-0.0044,-0.0035,-0.0037,-0.0021,-0.0021,-0.0021,-0.0021,-0.0021,0,0.0446,0.0493,0.0543,0.0575,0.0657,0.0661,0.0738,0.0741,0.076,0.0805,0.0717,0.0721,0.0545,0.0441,0.0285,0.0114,0.0126,-0.0025,-0.0062,-0.0003,-0.0001,-0.0038,-0.0039,-0.0024,-0.0023,-0.0023,-0.0022,0,0.0481,0.051,0.0583,0.0649,0.0683,0.0744,0.0832,0.0878,0.0886,0.0942,0.0948,0.0854,0.0717,0.0525,0.0318,0.0177,0.0005,-0.0061,0.0026,-0.0007,-0.0128,-0.0124,-0.0181,-0.0182,-0.0183,-0.0184,-0.0185,0,0.05,0.0544,0.0647,0.0703,0.0743,0.0836,0.0903,0.0943,0.0995,0.1022,0.1053,0.0948,0.0859,0.056,0.0338,0.004,-0.0012,-0.0105,-0.0127,-0.0112,-0.0143,-0.0137,-0.0132,-0.0187,-0.0187,-0.0187,-0.0188,0,0.0538,0.0581,0.0642,0.0764,0.0853,0.0953,0.1053,0.1101,0.1153,0.1164,0.1146,0.0991,0.0833,0.0573,0.0343,0.0124,-0.0048,-0.0118,-0.0118,-0.0139,-0.012,-0.0148,-0.0142,-0.0191,-0.0191,-0.0191,-0.019,0,0.0572,0.062,0.0709,0.0816,0.0933,0.1042,0.109,0.1157,0.121,0.1234,0.1225,0.1048,0.0946,0.0617,0.0404,0.0187,0.0119,0.0033,0.0024,0.0026,0.0096,0.0151,0.0141,0,0,0,0,0,0.0597,0.0653,0.0752,0.0871,0.0988,0.1062,0.1178,0.1213,0.1269,0.1269,0.1252,0.1104,0.0793,0.0654,0.0435,0.0357,0.0065,0.0088,-0.0041,-0.0212,-0.0208,-0.0164,0,0,0,0,0,0,0.0611,0.0701,0.0749,0.0903,0.099,0.1125,0.1205,0.124,0.124,0.1257,0.1096,0.1032,0.0726,0.0922,0.0427,0.0361,0.0243,-0.0052,-0.0057,-0.0215,-0.0211,-0.0207,-0.0161,0,0,0,0,0]}]]